Regional Weather Roundup
Issued by NWS

Home | Current Version | Previous Version | Text Only | Print | Product List | Glossary On
Versions: 1 2 3 4 5 6 7 8 9 10 11 12 13 14 15 16 17 18 19 20 21 22 23 24 25 26 27 28 29 30 31 32 33 34 35 36 37 38 39 40 41 42 43 44 45 46 47 48 49 50
000
ASUS43 KLSX 242010
RWRMO

WEATHER SUMMARY FOR MISSOURI
NATIONAL WEATHER SERVICE SPRINGFIELD MO
300 PM CDT SAT JUN 24 2017

NOTE: "FAIR" INDICATES FEW OR NO CLOUDS BELOW 12,000 FEET WITH NO
       SIGNIFICANT WEATHER AND/OR OBSTRUCTIONS TO VISIBILITY.
       CURRENT SKY AND/OR WEATHER CONDITIONS ARE NOT AVAILABLE FOR
       CHILLICOTHE AND FARMINGTON.

MOZ001>031-035>038-043-044-053-054-242100-
...NORTHERN AND WESTERN MISSOURI...

CITY           SKY/WX    TMP DP  RH WIND       PRES   REMARKS
KANSAS CTY INT MOSUNNY   77  43  29 NW7       30.21F
KANSAS C DTWN  SUNNY     79  40  24 N12G20    30.20F
LEE`S SUMMIT   SUNNY     77  42  28 NW9G20    30.21F
ST JOSEPH      SUNNY     78  42  27 NW12      30.21F
CHILLICOTHE      N/A     76  41  28 VRB6      30.19F
KIRKSVILLE     MOSUNNY   76  46  34 W10       30.18S

$$
MOZ066>068-077>081-088>096-101>105-242100-
...SOUTHWEST MISSOURI...

CITY           SKY/WX    TMP DP  RH WIND       PRES   REMARKS
SPRINGFIELD    SUNNY     77  51  40 N10       30.19F
JOPLIN         SUNNY     80  53  39 N13       30.20F
BRANSON        PTSUNNY   77  50  38 NW8       30.21S

$$
MOZ032>034-039>042-045>050-055>058-069>072-242100-
...CENTRAL MISSOURI...

CITY           SKY/WX    TMP DP  RH WIND       PRES   REMARKS
COLUMBIA       SUNNY     77  46  33 N13G23    30.17F
JEFFERSON CITY SUNNY     77  42  28 NW12G20   30.16F
ROLLA          SUNNY     76  49  38 NW12      30.15F
SEDALIA        SUNNY     78  49  35 N10       30.19F
WHITEMAN AFB   SUNNY     78  44  30 N13       30.17F
WARRENSBURG    SUNNY     77  43  29 NW9       30.18F
OSAGE BEACH    SUNNY     77  46  33 NW9       30.18F

$$
MOZ051-052-059>065-242100-
...EAST CENTRAL MISSOURI...

CITY           SKY/WX    TMP DP  RH WIND       PRES   REMARKS
ST LOUIS INTL  MOSUNNY   81  49  32 NW17G23   30.13S
SPIRIT OF STL  MOSUNNY   78  50  37 NW10G20   30.12S
ST CHARLES     SUNNY     78  46  32 NW15      30.11F

$$
MOZ072>076-082>087-097>100-106>115-242100-
...SOUTH CENTRAL AND SOUTHEAST MISSOURI...

CITY           SKY/WX    TMP DP  RH WIND       PRES   REMARKS
CAPE GIRARDEAU MOSUNNY   80  55  42 NW13      30.10F
FARMINGTON     CLOUDY    76  51  41 NW9       30.15F
POPLAR BLUFF   PTSUNNY   81  55  40 NW15G22   30.12S
WEST PLAINS    CLOUDY    77  50  38 NW7G17    30.18F

$$




USA.gov is the U.S. government's official web portal to all federal, state and local government web resources and services.